Location: Leeds
(37.2390°N, 113.3580°W)
Time: 06:29:34
(UTC-06:00)

SL-08 RB Rocket - Visible Passes

Search period start: 23 June 2018 00:00
Search period end: 03 July 2018 00:00
Orbit: 648 x 684 km, 97.9° (Epoch: 22 June)

Date Brightness Start Highest point End Pass type
(mag) Time Alt. Az. Time Alt. Az. Time Alt. Az.
23 Jun 5.1 21:39:30 10° ESE 21:43:16 25° ENE 21:47:04 10° NNE visible
23 Jun 5.3 23:17:30 17° SW 23:20:09 29° W 23:24:13 10° NW visible
24 Jun 4.0 22:11:16 18° SE 22:14:36 53° ENE 22:19:09 10° N visible
24 Jun 6.2 23:49:38 10° WSW 23:51:55 13° W 23:54:12 10° WNW visible
25 Jun 3.9 22:43:08 22° S 22:46:05 69° W 22:50:44 10° NNW visible
26 Jun 5.1 21:37:09 10° ESE 21:40:51 24° ENE 21:44:33 10° NNE visible
26 Jun 5.2 23:15:01 18° SSW 23:17:41 31° W 23:21:50 10° NW visible
27 Jun 4.1 22:08:45 17° SE 22:12:10 50° ENE 22:16:41 10° N visible
27 Jun 6.2 23:46:57 10° SW 23:49:26 14° W 23:51:57 10° WNW visible
28 Jun 3.9 22:40:38 22° S 22:43:37 74° WSW 22:48:19 10° NNW visible
29 Jun 5.2 21:34:48 10° ESE 21:38:25 23° ENE 21:42:02 10° NNE visible
29 Jun 5.1 23:12:32 18° SSW 23:15:14 33° W 23:19:26 10° NNW visible
30 Jun 4.2 22:06:17 16° SE 22:09:43 47° ENE 22:14:12 10° N visible
30 Jun 6.2 23:44:25 10° SW 23:46:58 15° W 23:49:40 10° WNW visible
01 Jul 3.8 22:38:10 22° S 22:41:10 78° WSW 22:45:51 10° NNW visible
02 Jul 5.2 21:32:28 10° ESE 21:35:59 22° ENE 21:39:30 10° NNE visible
02 Jul 5.1 23:10:04 19° SSW 23:12:46 34° W 23:17:02 10° NNW visible
